EN

Hourly Weather Acayucan

Today, 3 December, Thursday

Time Temperature Precipitation Wind Pressure Humidity
00:00 +21°C° 0 mm 1 mps 753 mmHg 91%
01:00 +21°C° 0 mm 1 mps 753 mmHg 91%
02:00 +21°C° 0 mm 1 mps 753 mmHg 92%
03:00 +20°C° 0 mm 2 mps 752 mmHg 92%
04:00 +20°C° 0 mm 2 mps 752 mmHg 91%
05:00 +20°C° 0 mm 2 mps 753 mmHg 91%
06:00 +20°C° 0 mm 2 mps 753 mmHg 90%
07:00 +21°C° 0 mm 3 mps 753 mmHg 89%
08:00 +22°C° 0 mm 3 mps 754 mmHg 89%
09:00 +22°C° 0 mm 4 mps 755 mmHg 88%
10:00 +23°C° 0 mm 4 mps 755 mmHg 86%
11:00 +26°C° 0 mm 4 mps 755 mmHg 85%
12:00 +27°C° 0 mm 4 mps 754 mmHg 83%
13:00 +27°C° 0.2 mm 4 mps 754 mmHg 82%
14:00 +27°C° 0.2 mm 4 mps 753 mmHg 82%
15:00 +27°C° 0.2 mm 4 mps 753 mmHg 81%
16:00 +26°C° 0.3 mm 4 mps 753 mmHg 85%
17:00 +25°C° 0.3 mm 3 mps 753 mmHg 88%
18:00 +24°C° 0.3 mm 3 mps 753 mmHg 91%
19:00 +22°C° 0 mm 3 mps 754 mmHg 91%
20:00 +22°C° 0 mm 3 mps 755 mmHg 91%
21:00 +22°C° 0 mm 3 mps 756 mmHg 91%
22:00 +21°C° 0 mm 3 mps 756 mmHg 92%
23:00 +21°C° 0 mm 3 mps 756 mmHg 92%

Tomorrow, 4 December, Friday

Time Temperature Precipitation Wind Pressure Humidity
00:00 +21°C° 0 mm 3 mps 756 mmHg 93%
01:00 +21°C° 0 mm 3 mps 755 mmHg 93%
02:00 +21°C° 0 mm 3 mps 755 mmHg 93%
03:00 +20°C° 0 mm 3 mps 755 mmHg 93%
04:00 +21°C° 0 mm 3 mps 755 mmHg 92%
05:00 +21°C° 0 mm 4 mps 755 mmHg 92%
06:00 +21°C° 0 mm 4 mps 755 mmHg 91%
07:00 +21°C° 0 mm 4 mps 756 mmHg 91%
08:00 +21°C° 0 mm 4 mps 756 mmHg 90%
09:00 +22°C° 0 mm 4 mps 756 mmHg 90%
10:00 +22°C° 0 mm 4 mps 756 mmHg 89%
11:00 +23°C° 0 mm 4 mps 756 mmHg 87%
12:00 +23°C° 0 mm 4 mps 756 mmHg 85%
13:00 +23°C° 0.1 mm 4 mps 755 mmHg 86%
14:00 +23°C° 0.1 mm 4 mps 755 mmHg 87%
15:00 +22°C° 0.1 mm 4 mps 754 mmHg 88%
16:00 +22°C° 0 mm 3 mps 754 mmHg 88%
17:00 +21°C° 0 mm 3 mps 755 mmHg 89%
18:00 +21°C° 0 mm 3 mps 755 mmHg 89%
19:00 +21°C° 0 mm 2 mps 756 mmHg 89%
20:00 +21°C° 0 mm 2 mps 756 mmHg 89%
21:00 +21°C° 0 mm 2 mps 757 mmHg 88%
22:00 +21°C° 0 mm 2 mps 757 mmHg 88%
23:00 +21°C° 0 mm 3 mps 757 mmHg 89%

Day after tomorrow, 5 December, Saturday

Time Temperature Precipitation Wind Pressure Humidity
00:00 +21°C° 0 mm 3 mps 757 mmHg 89%
01:00 +20°C° 0 mm 3 mps 756 mmHg 89%
02:00 +20°C° 0 mm 3 mps 756 mmHg 90%
03:00 +20°C° 0 mm 4 mps 755 mmHg 91%
04:00 +20°C° 0 mm 4 mps 756 mmHg 91%
05:00 +20°C° 0 mm 3 mps 756 mmHg 91%
06:00 +20°C° 0 mm 3 mps 756 mmHg 91%
07:00 +21°C° 0 mm 3 mps 756 mmHg 90%
08:00 +21°C° 0 mm 3 mps 757 mmHg 89%
09:00 +22°C° 0 mm 4 mps 757 mmHg 88%
10:00 +23°C° 0 mm 4 mps 757 mmHg 85%
11:00 +23°C° 0 mm 4 mps 756 mmHg 83%
12:00 +25°C° 0 mm 4 mps 756 mmHg 81%
13:00 +25°C° 0 mm 4 mps 755 mmHg 81%
14:00 +25°C° 0 mm 4 mps 755 mmHg 81%
15:00 +25°C° 0 mm 3 mps 754 mmHg 81%
16:00 +25°C° 0 mm 3 mps 754 mmHg 84%
17:00 +24°C° 0 mm 3 mps 754 mmHg 87%
18:00 +22°C° 0 mm 3 mps 754 mmHg 89%
19:00 +21°C° 0 mm 3 mps 755 mmHg 90%
20:00 +21°C° 0 mm 3 mps 756 mmHg 91%
21:00 +21°C° 0 mm 3 mps 756 mmHg 91%
22:00 +21°C° 0 mm 3 mps 756 mmHg 91%
23:00 +21°C° 0 mm 3 mps 756 mmHg 91%

6 December, Sunday

Time Temperature Precipitation Wind Pressure Humidity
00:00 +21°C° 0 mm 4 mps 755 mmHg 91%
01:00 +21°C° 0 mm 4 mps 755 mmHg 92%
02:00 +21°C° 0 mm 4 mps 755 mmHg 92%
03:00 +21°C° 0 mm 4 mps 754 mmHg 93%
04:00 +21°C° 0.1 mm 4 mps 754 mmHg 93%
05:00 +21°C° 0.1 mm 4 mps 754 mmHg 93%
06:00 +21°C° 0.1 mm 4 mps 754 mmHg 93%
07:00 +21°C° 0 mm 4 mps 755 mmHg 92%
08:00 +22°C° 0 mm 4 mps 755 mmHg 91%
09:00 +22°C° 0 mm 4 mps 756 mmHg 89%
10:00 +22°C° 0 mm 4 mps 756 mmHg 88%
11:00 +23°C° 0 mm 4 mps 756 mmHg 87%
12:00 +23°C° 0 mm 4 mps 755 mmHg 85%
13:00 +23°C° 0 mm 4 mps 755 mmHg 85%
14:00 +22°C° 0 mm 5 mps 754 mmHg 85%
15:00 +22°C° 0 mm 5 mps 754 mmHg 84%
16:00 +22°C° 0 mm 4 mps 754 mmHg 84%
17:00 +21°C° 0 mm 4 mps 755 mmHg 84%
18:00 +21°C° 0 mm 4 mps 755 mmHg 84%
19:00 +21°C° 0 mm 4 mps 756 mmHg 85%
20:00 +21°C° 0 mm 4 mps 756 mmHg 86%
21:00 +21°C° 0 mm 3 mps 757 mmHg 87%
22:00 +21°C° 0 mm 4 mps 757 mmHg 87%
23:00 +21°C° 0 mm 4 mps 757 mmHg 87%

7 December, Monday

Time Temperature Precipitation Wind Pressure Humidity
00:00 +21°C° 0 mm 4 mps 756 mmHg 88%
01:00 +21°C° 0 mm 4 mps 756 mmHg 88%
02:00 +20°C° 0 mm 4 mps 755 mmHg 88%
03:00 +20°C° 0 mm 4 mps 755 mmHg 88%
04:00 +20°C° 0.1 mm 4 mps 755 mmHg 88%
05:00 +20°C° 0.1 mm 4 mps 755 mmHg 88%
06:00 +20°C° 0.1 mm 3 mps 755 mmHg 88%
07:00 +20°C° 0.1 mm 3 mps 756 mmHg 88%
08:00 +20°C° 0.1 mm 3 mps 756 mmHg 89%
09:00 +20°C° 0.1 mm 3 mps 757 mmHg 89%
10:00 +21°C° 0.2 mm 4 mps 757 mmHg 89%
11:00 +21°C° 0.2 mm 4 mps 756 mmHg 90%
12:00 +21°C° 0.2 mm 4 mps 756 mmHg 90%
13:00 +21°C° 0.3 mm 4 mps 756 mmHg 91%
14:00 +21°C° 0.3 mm 4 mps 755 mmHg 91%
15:00 +21°C° 0.3 mm 4 mps 755 mmHg 92%
16:00 +21°C° 0.1 mm 3 mps 755 mmHg 92%
17:00 +21°C° 0.1 mm 3 mps 755 mmHg 93%
18:00 +21°C° 0.1 mm 3 mps 756 mmHg 93%
19:00 +21°C° 0 mm 3 mps 756 mmHg 93%
20:00 +21°C° 0 mm 3 mps 757 mmHg 93%
21:00 +21°C° 0 mm 3 mps 758 mmHg 93%
22:00 +21°C° 0 mm 3 mps 758 mmHg 93%
23:00 +20°C° 0 mm 3 mps 758 mmHg 93%

8 December, Tuesday

Time Temperature Precipitation Wind Pressure Humidity
00:00 +20°C° 0 mm 3 mps 758 mmHg 93%
01:00 +20°C° 0.1 mm 3 mps 757 mmHg 93%
02:00 +20°C° 0.1 mm 3 mps 757 mmHg 93%
03:00 +20°C° 0.1 mm 4 mps 757 mmHg 94%
04:00 +20°C° 0.4 mm 3 mps 757 mmHg 94%
05:00 +20°C° 0.4 mm 3 mps 757 mmHg 95%
06:00 +20°C° 0.4 mm 3 mps 757 mmHg 96%
07:00 +20°C° 0.4 mm 3 mps 758 mmHg 96%
08:00 +20°C° 0.4 mm 3 mps 758 mmHg 96%
09:00 +20°C° 0.4 mm 3 mps 759 mmHg 95%
10:00 +21°C° 0.8 mm 3 mps 759 mmHg 95%
11:00 +21°C° 0.8 mm 3 mps 758 mmHg 95%
12:00 +21°C° 0.8 mm 3 mps 758 mmHg 95%
13:00 +21°C° 0.7 mm 2 mps 758 mmHg 95%
14:00 +21°C° 0.7 mm 2 mps 758 mmHg 95%
15:00 +21°C° 0.7 mm 2 mps 757 mmHg 95%
16:00 +21°C° 0.4 mm 2 mps 758 mmHg 95%
17:00 +20°C° 0.4 mm 2 mps 758 mmHg 95%
18:00 +20°C° 0.4 mm 2 mps 759 mmHg 95%
19:00 +20°C° 0.5 mm 2 mps 759 mmHg 95%
20:00 +20°C° 0.5 mm 2 mps 760 mmHg 95%
21:00 +20°C° 0.5 mm 2 mps 761 mmHg 95%
22:00 +20°C° 0.4 mm 2 mps 761 mmHg 95%
23:00 +20°C° 0.4 mm 2 mps 761 mmHg 94%
Show more